GFSNW_prec_cthk_015.txt.gz
RH
45 36 34 33 29 29 30 31 31 29 27 27 34 43 45 34 31 29 28 28 31 40 38 34 36 37 33 33 36 39 40 40 41 31 27 25 24 25 25 36 36 46 46 38
46 37 35 32 29 28 28 30 34 30 26 28 32 35 40 35 31 29 29 30 33 40 44 45 42 41 41 32 32 35 35 37 45 39 33 27 27 27 31 31 35 38 45 36
46 39 36 30 29 28 29 30 40 33 29 23 24 27 39 33 31 29 28 30 35 41 45 46 47 44 41 30 30 32 33 35 33 36 31 28 26 28 30 31 41 38 37 31
46 41 36 30 29 28 29 31 36 28 30 27 27 24 36 33 30 27 27 28 32 40 45 44 45 44 38 29 31 31 31 33 32 31 29 25 24 25 30 32 32 35 30 33
48 43 36 30 27 28 30 34 37 30 25 21 28 32 36 34 29 27 24 25 31 38 40 38 45 41 35 30 29 30 35 37 30 32 31 30 26 26 28 28 28 32 31 32
49 45 37 29 27 28 31 41 38 30 31 23 28 33 37 32 30 31 28 29 31 34 42 40 39 38 34 32 28 30 32 36 33 30 36 32 28 26 27 26 26 27 33 31
51 47 38 29 26 26 38 45 40 32 35 22 27 33 36 34 32 31 29 29 31 34 40 44 43 41 40 39 37 31 35 40 38 38 36 32 22 25 26 27 27 31 32 34
54 48 36 28 26 33 46 44 45 33 36 30 31 35 40 37 38 38 38 34 34 35 37 46 47 51 44 44 46 39 34 38 45 42 43 30 23 27 29 30 29 33 34 37
56 46 36 29 30 38 64 57 45 37 34 42 41 39 39 42 42 43 41 40 38 38 42 44 44 45 39 45 44 44 41 36 37 51 39 34 23 27 28 30 37 32 35 39
56 48 38 35 36 58 67 63 51 38 40 46 43 43 43 39 41 44 44 43 43 41 48 53 53 51 43 49 47 51 51 50 44 53 45 36 24 29 31 40 30 32 36 38
56 52 40 39 41 48 60 60 46 39 35 39 40 38 36 36 39 43 42 46 46 48 53 53 54 55 50 49 45 48 49 51 51 51 52 38 25 33 36 30 29 35 39 42
64 54 50 43 41 42 43 41 39 37 37 39 39 39 38 38 42 42 46 44 45 47 50 52 53 53 55 51 51 46 48 41 44 41 37 27 29 29 30 33 36 41 45 49
57 60 59 56 52 50 46 44 42 38 39 41 43 42 41 41 42 44 43 46 43 44 42 46 49 47 50 51 50 44 41 40 42 40 32 33 35 36 37 41 45 48 51 58
60 55 49 49 50 47 43 40 38 36 34 37 45 44 48 48 47 46 46 45 45 45 44 46 45 43 42 45 42 44 41 44 43 45 41 42 41 42 45 48 50 56 62 63
62 57 52 49 47 47 46 45 43 41 38 40 44 46 48 51 52 51 51 51 52 52 52 52 51 48 50 50 52 49 45 47 51 47 43 45 44 46 50 55 58 60 61 66
67 63 57 53 50 47 45 43 42 42 41 40 46 45 46 46 47 47 47 47 46 47 47 50 51 48 51 57 56 44 41 43 46 48 50 49 51 55 55 55 59 63 69 76
66 65 64 62 58 54 50 47 49 50 48 46 52 51 49 48 48 48 50 50 51 52 54 55 53 54 56 59 60 49 59 59 59 59 59 58 57 57 58 64 73 80 80 83
67 65 63 63 62 61 57 55 54 54 53 51 55 54 50 51 53 55 54 55 55 57 59 60 62 66 70 71 57 59 59 59 59 60 61 60 61 63 70 79 82 83 86 96
66 65 64 63 61 61 61 61 60 57 55 54 54 51 51 53 57 59 60 61 64 64 67 69 72 71 68 60 59 59 59 58 57 61 65 68 73 76 80 84 83 88 98 88
74 72 69 67 66 65 63 64 61 61 60 58 55 51 53 51 55 58 61 63 67 67 65 67 66 61 57 60 61 64 68 72 70 73 78 79 81 86 88 91 95 98 87 81
70 71 72 70 69 67 66 69 68 68 67 63 62 58 55 56 60 68 74 76 73 71 67 74 73 72 70 71 71 71 70 72 76 78 82 84 87 93 95 97 94 84 79 78
72 69 70 70 69 67 68 70 70 68 70 70 70 64 65 70 76 82 84 84 84 83 81 86 78 76 75 77 78 78 78 80 82 85 86 91 94 92 90 84 79 77 72 64
86 87 85 82 81 83 84 81 80 80 80 83 86 90 91 94 95 96 97 97 93 89 88 87 83 80 82 85 86 85 86 86 86 88 89 91 87 86 84 78 71 65 63 59
98 98 99 96 92 90 91 89 90 89 90 92 92 93 92 95 97 99 99 98 97 96 92 87 87 89 89 89 88 90 90 88 87 86 84 84 82 76 72 68 66 63 58 55
95 95 97 95 94 93 92 92 92 91 91 92 93 94 95 95 97 97 97 97 95 93 91 92 91 91 95 95 94 93 89 88 89 87 84 79 76 73 70 66 62 57 51 47
62 76 89 93 94 93 93 93 93 93 93 93 94 96 97 97 96 95 94 95 93 93 95 97 97 95 95 97 96 93 94 95 94 92 87 79 74 69 63 56 52 50 48 47
53 58 62 65 66 74 81 85 89 90 91 92 93 93 94 96 97 97 98 97 97 98 98 96 97 98 95 92 91 89 86 82 80 76 72 66 61 56 53 51 49 47 45 43

GFSNW_prec_cthk_018.txt.gz
RH
49 47 45 41 39 40 36 36 34 33 31 35 37 42 43 45 35 32 31 29 32 37 40 35 34 35 34 31 34 39 45 46 45 33 34 29 27 26 26 34 31 44 43 33
49 47 48 40 41 41 35 33 36 36 30 35 36 42 44 44 35 33 33 32 32 42 49 47 40 39 39 34 33 40 42 43 50 38 32 28 27 29 28 29 34 37 44 31
49 48 48 41 41 41 40 35 40 40 34 28 27 38 43 41 36 33 32 34 33 40 49 49 52 46 41 38 34 34 37 40 36 36 29 30 29 30 29 28 39 35 35 25
49 47 45 43 41 40 39 36 37 34 38 32 26 34 39 40 36 32 31 31 32 39 49 49 51 47 41 39 36 34 33 36 36 35 33 27 24 25 29 29 28 32 27 28
49 48 45 44 41 38 39 35 36 33 31 27 27 32 33 37 35 33 29 29 33 34 43 42 47 41 40 34 35 36 36 37 32 36 36 34 28 25 26 28 27 31 30 28
51 52 44 43 39 37 38 35 34 31 33 30 29 31 29 33 34 32 29 27 28 31 38 41 40 38 36 33 33 35 33 36 34 32 38 33 29 22 24 24 24 24 28 22
58 52 45 42 37 35 36 35 37 37 35 31 28 27 27 35 33 31 34 29 28 31 35 42 43 40 40 39 39 34 32 33 36 39 35 35 20 22 24 25 24 25 26 26
64 53 47 41 34 35 35 40 42 39 40 28 25 29 32 36 37 35 35 32 29 32 34 42 46 50 44 44 45 41 35 35 41 40 41 27 20 23 28 30 27 27 28 31
58 55 47 37 32 35 36 48 43 41 39 32 24 30 34 39 40 39 40 38 34 34 37 39 44 47 42 41 44 47 44 40 39 47 37 33 23 24 27 28 35 25 28 33
63 54 43 34 32 34 45 50 50 45 39 31 28 33 37 37 38 41 41 40 39 37 41 47 44 41 39 44 44 51 55 55 47 55 46 35 25 27 29 36 29 26 28 31
64 50 39 33 31 39 47 53 50 47 44 42 41 38 36 36 38 43 42 43 45 45 47 49 49 52 47 45 40 48 49 55 56 56 54 42 29 34 36 31 28 28 31 35
65 51 40 33 35 43 66 64 59 50 44 50 49 46 43 42 38 35 42 42 43 43 47 48 50 52 51 46 46 43 47 43 46 43 40 32 32 33 33 33 34 34 37 40
67 54 42 41 43 59 81 78 67 51 48 46 47 45 44 42 41 44 42 44 40 41 42 46 46 44 45 47 48 43 41 40 41 39 32 34 35 35 37 39 40 43 47 53
68 54 46 47 48 55 64 62 55 47 45 47 48 45 44 43 42 42 42 41 43 44 43 43 46 43 42 44 41 43 41 43 42 44 40 41 41 42 43 44 45 48 53 57
71 70 60 53 51 49 49 49 51 45 38 40 44 46 46 46 46 47 48 48 46 46 48 51 49 45 46 48 50 49 43 46 50 49 43 44 43 45 47 49 52 55 60 64
66 65 63 65 64 59 51 47 45 40 36 36 46 47 50 50 53 53 53 51 50 50 50 52 50 47 48 57 57 44 41 45 48 51 53 56 58 60 60 60 62 62 66 70
67 63 60 56 53 51 48 45 47 45 44 41 48 47 46 47 48 50 51 50 49 49 51 53 54 55 56 61 63 41 51 60 63 67 66 63 63 63 64 64 65 67 74 80
70 68 66 62 58 55 53 51 50 48 47 45 51 52 50 52 53 53 52 53 54 56 57 57 56 59 62 63 55 60 63 62 63 66 67 65 63 64 68 73 80 86 86 91
72 72 71 69 67 65 65 62 59 58 56 58 60 57 59 59 60 59 57 58 59 58 60 61 62 64 67 64 62 61 60 62 63 65 68 73 77 78 79 84 86 88 96 98
76 74 72 72 73 73 72 72 67 65 65 63 63 63 63 60 59 59 59 60 62 62 60 61 62 62 64 62 60 63 68 72 72 76 78 80 81 84 87 89 93 96 95 90
79 77 76 77 76 72 70 71 70 71 71 69 68 66 64 61 60 62 63 65 65 65 64 71 72 71 68 72 75 78 77 75 76 79 82 85 88 91 91 91 90 89 90 89
70 71 74 74 73 73 74 76 74 72 71 68 68 66 65 66 68 69 70 71 72 73 73 80 80 79 83 85 84 83 83 82 83 83 86 88 89 90 88 86 83 80 76 75
78 77 75 73 77 80 78 82 78 73 68 66 65 72 74 79 86 91 92 92 90 87 88 89 86 87 87 86 85 85 84 84 84 85 85 83 83 81 79 78 74 74 72 69
93 91 88 81 81 79 78 76 75 77 80 84 87 88 90 94 97 98 99 98 95 92 89 87 87 89 89 86 87 86 86 84 83 83 83 80 76 74 75 75 73 71 68 64
98 97 98 94 90 89 90 92 93 92 93 95 95 95 95 97 97 98 98 97 95 91 88 89 89 91 93 91 89 85 85 85 86 86 87 88 82 77 74 70 64 58 54 52
92 94 96 96 96 96 96 95 96 96 96 97 96 95 96 97 97 95 95 94 91 92 95 96 97 97 98 97 95 95 93 90 87 84 78 71 66 63 59 56 54 52 52 51
64 67 77 87 90 91 92 93 92 91 90 91 92 92 92 94 95 94 94 92 92 92 91 93 96 97 97 95 93 90 85 80 76 69 64 60 53 51 49 46 43 42 44 44

GFSNW_prec_cthk_021.txt.gz
RH
51 58 52 50 47 42 40 45 46 41 36 38 38 40 37 46 37 30 29 28 29 30 32 33 33 32 30 30 30 32 36 42 46 36 32 33 32 29 27 30 29 36 33 22
59 68 58 53 49 45 41 50 47 43 33 39 38 38 41 44 36 33 31 30 31 37 45 45 36 35 34 33 31 34 37 46 50 41 34 33 29 28 26 27 30 32 41 21
71 67 59 55 53 49 47 51 50 46 36 33 34 38 42 44 39 36 33 34 34 38 48 51 50 44 39 37 36 34 38 44 41 38 32 30 30 30 28 28 32 28 29 22
75 63 59 56 53 52 54 50 46 40 41 34 34 35 42 44 42 36 33 34 34 37 45 51 52 50 44 42 42 37 34 38 39 38 36 31 26 27 30 27 25 28 22 23
71 63 63 54 51 56 57 48 44 36 36 31 33 35 42 45 42 38 33 34 34 33 42 46 52 47 38 35 42 39 35 36 36 38 38 35 31 27 26 28 27 25 25 24
66 66 59 50 50 51 56 49 41 31 39 37 34 34 38 43 42 40 36 31 31 34 38 43 43 41 38 37 38 38 36 37 35 35 36 33 32 25 25 25 24 23 28 21
64 61 54 51 48 50 51 54 42 35 39 39 33 31 32 38 39 38 36 30 29 30 33 34 41 40 40 39 37 33 33 34 34 36 35 33 21 23 23 24 24 24 24 24
61 57 53 50 51 50 50 47 38 36 42 36 33 32 30 37 39 38 33 34 31 32 33 38 43 49 46 46 44 40 36 35 39 39 34 25 18 20 24 28 23 23 24 26
58 54 53 51 52 50 50 47 40 40 40 37 31 32 30 37 38 38 37 35 34 33 35 38 42 46 40 38 45 46 44 41 41 45 37 36 24 22 26 28 33 24 25 29
58 59 53 52 51 50 48 47 44 43 43 40 33 30 29 33 37 39 38 38 39 36 37 43 40 38 37 37 40 50 53 52 47 50 46 36 29 31 33 36 32 28 29 31
67 62 55 50 49 46 46 48 51 50 45 43 37 29 28 32 35 39 39 42 42 42 43 44 42 44 40 39 37 43 41 49 51 50 49 43 30 34 37 32 31 30 32 34
71 62 56 47 44 44 43 58 64 66 51 43 36 35 37 40 41 36 38 41 40 40 45 44 44 49 48 44 43 42 42 40 43 40 37 31 32 33 33 34 35 36 39 42
66 59 51 44 40 43 45 80 72 59 58 54 48 48 45 45 44 45 42 40 41 41 39 42 45 46 44 47 46 43 40 41 40 38 33 35 35 37 38 40 43 45 48 50
69 56 44 41 40 43 57 68 76 56 53 58 62 59 57 54 50 47 41 40 42 42 41 42 45 43 43 46 45 45 41 41 42 43 41 42 42 43 45 47 49 50 52 56
72 58 46 42 45 56 77 79 70 62 53 53 56 55 54 53 50 47 45 43 41 43 44 48 48 47 50 53 51 47 43 45 50 49 43 47 48 51 55 58 63 65 64 63
74 67 54 51 63 78 79 79 73 66 57 51 60 56 56 52 50 48 47 48 49 49 49 52 53 50 51 58 56 43 46 48 50 50 54 57 61 67 67 66 67 66 65 65
69 67 63 60 64 73 74 65 65 58 53 48 54 55 54 54 54 54 55 55 55 55 55 56 55 55 55 60 62 55 54 54 59 64 65 65 67 67 68 67 67 69 75 78
73 77 72 70 68 62 60 58 53 50 46 44 50 51 49 50 51 52 51 52 52 54 56 57 58 61 62 64 61 60 59 60 64 66 68 69 71 72 73 76 80 82 86 89
73 71 69 66 62 59 61 58 56 51 46 47 47 47 54 55 57 58 58 58 60 59 61 62 61 65 66 62 60 60 59 60 61 64 68 75 79 82 86 87 89 92 93 93
75 72 70 70 70 66 63 61 59 57 57 57 61 65 66 67 68 67 64 61 62 62 62 63 64 65 63 61 64 69 72 71 75 78 82 85 86 87 89 91 91 93 93 92
76 76 80 81 78 74 73 77 77 77 78 76 76 75 73 70 68 70 69 69 65 64 63 66 68 68 65 68 74 81 84 85 86 87 88 86 86 87 87 88 88 85 83 82
82 81 81 79 78 78 81 84 82 81 80 77 77 76 74 72 70 68 69 69 71 72 71 74 74 75 81 85 87 89 88 86 85 84 84 86 84 82 81 80 78 78 76 73
84 84 83 83 86 86 81 82 78 75 74 74 73 72 69 68 70 73 74 77 80 82 87 90 88 89 89 88 87 87 84 83 80 77 75 72 71 72 72 71 69 67 66 62
73 70 72 71 76 75 75 78 78 77 76 77 77 78 81 84 86 89 90 91 92 92 89 88 89 89 89 88 88 87 86 87 86 85 83 82 80 74 71 69 66 61 56 52
94 91 93 90 88 88 86 83 79 81 85 92 94 94 94 95 96 96 96 96 94 89 87 89 92 93 93 92 88 84 85 87 89 88 83 76 72 68 62 59 54 51 48 47
98 98 98 95 95 97 97 97 97 97 98 98 98 97 97 96 96 95 95 94 92 91 95 96 93 93 92 91 90 89 86 81 78 74 74 72 65 58 54 49 43 42 41 41
90 94 98 98 98 98 98 98 98 98 98 98 98 97 97 96 96 93 92 90 91 93 91 91 90 85 83 83 82 75 73 77 75 68 61 56 50 45 43 42 42 42 41 39

GFSNW_prec_cthk_024.txt.gz
RH
50 66 73 40 48 52 49 43 43 41 48 57 43 35 30 34 39 35 26 24 27 23 23 25 24 26 26 26 26 27 27 31 36 36 33 28 29 31 29 26 26 30 28 17
71 75 78 46 54 52 47 44 50 50 54 50 41 33 30 38 40 34 29 28 29 30 31 33 31 29 29 27 27 29 28 34 39 40 36 32 31 29 25 25 25 25 36 17
82 68 76 56 62 59 54 50 54 60 55 43 35 32 34 39 43 36 33 31 31 33 38 41 43 32 32 31 32 30 31 32 37 42 35 31 32 29 25 22 27 22 21 16
93 95 72 66 73 64 58 54 53 56 51 40 35 33 34 39 44 39 36 33 30 31 39 46 48 45 39 37 38 37 33 34 38 40 37 33 28 25 24 23 22 25 17 18
98 95 86 81 81 71 62 55 56 63 44 35 33 36 37 40 47 40 36 34 32 34 36 38 46 44 44 41 40 39 37 36 36 37 35 33 31 26 24 24 23 23 20 18
98 95 87 84 77 64 60 55 52 49 45 35 34 32 37 41 50 44 37 34 34 34 34 39 46 46 43 40 37 41 40 36 35 33 34 33 38 27 24 23 23 24 25 20
88 87 84 81 71 63 61 63 53 46 46 37 33 33 38 43 48 48 39 35 32 33 35 36 40 41 41 39 38 38 38 35 37 39 36 48 21 21 21 22 22 21 23 22
89 83 84 79 69 67 60 56 49 41 48 39 37 33 36 45 48 52 43 39 33 31 31 33 37 43 49 45 41 38 34 34 41 47 32 23 17 19 21 25 21 23 23 23
90 85 81 71 70 66 61 56 47 41 39 37 36 34 37 41 48 47 44 41 34 32 35 38 42 42 37 41 45 44 41 39 38 44 52 55 25 25 27 28 29 24 24 27
87 82 74 68 67 63 64 59 50 45 40 38 36 34 35 36 42 42 41 41 37 34 38 49 45 39 34 34 37 47 47 49 51 46 51 34 28 27 29 32 31 28 29 28
80 74 67 65 60 61 63 56 51 44 44 44 41 36 33 32 37 38 38 40 39 39 46 47 41 44 35 33 31 36 39 46 51 46 55 51 27 31 35 32 30 30 32 35
70 65 64 61 58 60 64 55 51 43 42 49 45 39 32 29 35 39 39 37 34 38 43 43 44 48 45 39 38 36 38 36 38 36 35 31 32 31 33 35 35 37 40 44
63 62 61 59 59 60 58 52 47 46 52 52 52 46 36 33 32 40 40 41 39 41 40 41 45 52 42 49 41 38 36 37 37 36 32 32 34 36 39 41 43 45 46 47
68 65 60 58 58 61 61 48 52 77 70 61 51 46 45 44 43 46 45 40 45 43 45 47 47 47 42 44 41 40 40 41 40 39 36 39 41 44 45 49 52 54 58 63
70 62 57 55 57 59 52 52 66 81 78 73 55 50 53 50 48 49 53 51 45 46 49 51 49 45 47 49 48 49 45 43 45 45 45 45 47 53 56 57 61 65 67 68
66 65 57 51 54 53 59 76 70 80 74 70 79 69 71 64 59 54 54 53 49 50 48 52 51 50 50 59 52 51 48 48 51 52 52 55 58 62 65 67 67 66 66 66
60 53 51 50 51 57 61 77 81 76 67 56 67 66 65 61 58 57 56 53 51 53 56 59 57 55 53 57 56 54 54 55 56 58 60 63 65 66 65 67 68 73 80 82
65 56 56 58 59 67 78 83 78 70 61 55 59 61 65 63 62 61 60 61 61 62 62 60 57 57 57 63 60 61 60 61 62 60 59 62 63 66 70 76 81 85 85 86
83 80 76 80 83 84 81 75 74 69 64 63 61 62 62 61 60 58 57 56 57 55 57 59 60 64 65 63 62 63 64 63 63 66 69 74 79 81 84 87 87 86 86 85
71 67 67 73 78 77 74 72 67 62 59 54 55 54 53 52 56 58 59 62 65 64 64 66 67 65 64 64 63 62 63 66 70 76 82 87 88 88 86 86 85 83 81 80
77 73 78 78 73 70 68 69 67 65 63 60 59 60 60 64 68 72 72 73 71 71 67 69 69 67 64 66 67 69 74 78 82 86 87 85 81 79 79 77 77 79 74 71
78 80 79 77 74 72 76 77 76 72 74 73 74 73 76 77 78 78 76 75 74 74 70 71 71 67 73 82 87 89 87 86 85 83 81 80 79 80 78 75 69 64 60 58
82 81 82 83 86 89 88 84 82 82 81 82 80 79 79 78 77 77 76 75 76 71 75 77 73 79 89 91 91 88 87 83 79 76 72 70 70 69 66 65 63 57 54 53
92 92 94 92 91 86 83 82 82 81 78 77 76 76 76 78 78 79 80 83 85 87 85 83 88 92 94 93 92 90 86 83 81 79 78 72 65 60 58 55 52 49 47 44
89 87 90 89 86 81 75 73 72 73 77 81 83 80 80 84 89 90 93 94 93 89 87 90 92 94 96 95 92 89 86 85 81 73 64 60 61 58 52 45 41 38 38 38
94 93 93 91 89 89 89 89 92 92 90 89 91 94 95 97 98 98 98 97 93 92 92 94 96 96 95 93 87 84 80 70 65 63 61 56 50 45 41 41 41 38 37 38
97 98 98 97 98 98 98 98 98 98 98 98 98 98 97 95 95 94 94 94 93 93 92 91 90 89 86 81 78 73 67 64 58 52 48 46 44 44 43 42 41 42 44 44

GFSNW_prec_cthk_030.txt.gz
RH
39 36 33 26 24 37 52 51 46 37 42 47 45 53 42 41 45 41 39 40 42 32 43 36 32 40 40 31 29 29 29 35 39 36 37 29 32 42 37 46 31 39 41 31
50 44 37 33 25 38 54 54 50 57 44 41 43 47 44 42 45 47 35 35 38 32 33 36 30 40 49 38 30 29 36 33 36 35 41 31 24 20 23 37 39 38 54 30
57 50 47 45 30 44 63 57 61 74 58 35 45 43 41 45 43 43 41 36 33 33 26 31 34 35 39 37 33 28 30 30 28 40 41 51 52 37 27 30 44 34 29 23
63 61 50 48 36 53 68 59 46 59 59 47 46 48 43 44 46 42 48 38 31 36 34 31 38 40 41 34 27 24 25 26 25 29 40 52 47 41 37 34 31 35 27 25
72 68 60 56 37 64 73 60 49 50 59 53 50 49 43 45 47 43 50 44 36 39 37 39 44 45 43 36 33 32 32 35 34 38 36 38 36 37 33 29 29 28 25 26
81 74 63 56 45 74 71 60 55 66 57 53 54 48 51 51 49 47 45 40 41 41 47 47 47 50 64 51 49 43 45 40 41 42 35 33 36 29 27 25 26 29 31 28
82 74 63 56 64 84 67 64 67 73 66 53 41 52 55 57 44 62 53 48 49 49 45 42 38 39 50 53 51 50 49 45 49 51 46 48 25 24 24 24 25 26 28 29
74 69 60 54 68 74 72 76 81 83 80 52 57 59 59 53 46 66 56 54 54 51 40 38 39 39 43 48 46 46 45 45 51 62 46 31 27 26 24 25 25 26 25 25
66 61 57 72 75 73 76 82 82 91 87 62 47 53 60 53 52 77 58 58 52 50 43 43 38 43 34 45 44 36 36 42 49 47 55 55 36 30 27 25 32 29 28 29
70 66 50 83 87 84 85 84 92 91 84 77 66 53 53 55 60 75 61 53 48 45 49 49 41 38 36 49 47 56 54 53 56 54 57 45 34 31 28 33 40 34 34 32
70 65 49 83 86 89 82 74 97 98 90 75 71 64 59 58 68 70 60 57 50 50 49 46 43 48 41 35 34 41 42 50 55 53 62 56 30 29 31 38 35 32 31 31
71 58 72 79 89 94 89 87 76 86 98 84 68 65 53 53 73 54 56 52 46 44 46 46 48 50 47 40 40 33 40 37 44 40 44 37 33 33 32 33 33 33 35 38
65 84 85 88 96 93 84 75 87 94 87 74 69 70 52 53 58 59 57 53 53 49 46 46 46 48 41 47 39 42 36 36 37 37 30 36 37 34 36 38 39 42 43 45
90 92 90 97 90 83 92 97 98 96 71 73 68 57 49 43 46 49 55 51 49 53 50 46 43 46 38 43 38 42 41 41 37 36 35 37 40 45 45 45 47 45 48 54
89 89 89 93 90 83 97 85 89 85 65 65 68 59 50 39 36 36 42 45 45 48 51 47 48 44 46 46 45 43 40 39 43 46 44 42 48 48 48 48 48 49 54 56
96 96 91 90 88 93 99 97 78 75 61 58 66 63 56 45 41 38 39 43 46 48 51 52 48 46 48 54 53 46 45 42 45 48 48 50 50 47 48 51 56 60 60 59
89 88 89 91 93 92 97 82 71 67 59 60 65 67 63 57 49 47 45 46 52 55 52 53 52 50 55 57 58 53 51 50 50 47 48 53 55 55 57 61 62 61 61 65
87 88 90 92 89 98 95 79 76 69 66 68 74 73 66 61 63 60 54 56 57 60 58 61 62 60 64 64 59 58 56 54 52 50 53 56 61 66 65 65 65 67 70 72
86 88 92 95 98 97 89 86 77 63 70 77 80 77 72 65 66 65 65 66 71 67 69 69 68 73 69 64 62 59 60 57 55 58 62 65 67 67 68 69 70 72 76 78
84 89 94 98 97 93 84 85 81 78 89 79 81 83 75 67 69 73 72 73 74 78 79 75 72 70 67 68 63 59 59 62 64 66 70 71 71 72 74 77 81 81 79 77
90 90 95 97 91 90 88 86 82 84 89 79 79 84 85 84 86 87 87 85 83 81 77 75 71 64 63 63 63 67 70 71 71 70 72 75 77 79 81 82 81 72 66 60
86 80 87 88 89 94 88 87 83 84 91 83 77 74 75 78 78 81 86 79 74 75 67 70 66 63 67 72 74 74 74 74 71 73 75 78 82 82 82 78 69 65 62 54
84 85 89 91 89 94 90 89 95 90 87 83 81 78 74 73 72 72 71 72 75 68 74 68 68 72 77 79 76 73 72 74 77 82 85 85 83 79 72 67 68 63 54 45
84 89 93 95 94 90 89 90 90 86 83 80 78 77 76 74 73 72 72 76 76 79 80 75 80 81 80 78 78 81 84 84 84 86 84 80 77 73 71 64 58 51 38 29
94 96 98 98 94 92 92 91 88 88 85 81 81 80 78 80 82 84 87 91 91 87 84 83 82 82 85 89 92 93 90 91 93 90 83 78 76 73 64 53 41 32 32 33
97 94 96 95 96 96 95 93 92 91 91 91 90 90 90 92 92 90 92 91 89 87 85 87 89 94 97 97 96 94 93 95 92 83 78 74 68 59 45 38 37 37 39 40
97 97 97 97 97 97 96 97 98 98 96 95 93 92 91 89 88 88 88 89 92 92 95 97 98 98 98 97 96 96 94 88 82 75 66 58 51 47 45 46 46 47 49 50

GFSNW_prec_cthk_033.txt.gz
RH
45 39 37 37 27 22 29 42 51 42 52 48 52 52 47 36 40 49 48 47 38 28 33 45 38 34 46 39 46 50 49 50 63 55 37 35 32 34 45 50 35 45 49 38
51 49 40 39 35 26 32 48 48 54 48 43 49 45 41 39 46 52 46 44 33 34 37 53 43 40 47 50 49 37 35 39 48 48 45 42 35 30 35 39 42 42 49 40
60 53 49 48 43 32 37 49 59 63 51 35 38 43 32 38 42 53 45 44 34 39 36 46 48 42 45 44 45 40 34 33 36 38 26 40 44 46 36 26 46 40 42 34
62 60 51 50 49 38 43 52 50 48 55 51 40 44 34 39 49 52 47 47 34 36 40 44 44 42 41 38 35 34 34 33 27 25 27 39 44 56 46 41 37 42 37 35
63 55 62 58 52 48 53 61 47 44 55 54 48 42 34 37 46 51 49 54 31 33 40 38 39 39 36 35 35 29 28 31 25 27 27 35 38 45 44 41 37 34 35 35
61 53 58 61 62 56 55 61 54 50 47 62 56 38 31 37 42 49 50 42 40 35 41 44 40 37 38 40 41 32 31 35 41 40 34 32 36 30 30 32 35 33 33 35
55 58 64 64 66 57 54 58 64 66 53 67 48 41 35 42 38 55 48 46 45 46 48 51 50 45 48 48 65 47 47 50 54 52 42 40 29 26 26 28 30 30 30 31
65 59 72 69 69 57 60 65 67 71 64 56 60 45 43 46 43 56 59 49 50 55 48 56 60 58 46 44 56 53 54 60 60 56 52 37 33 29 27 27 30 27 27 29
75 75 80 73 68 55 59 70 76 84 72 60 55 48 48 52 59 70 68 56 65 55 60 59 57 56 37 39 40 45 49 51 52 55 54 48 39 32 28 27 37 30 30 30
98 92 79 71 64 53 64 76 74 70 91 79 70 52 39 53 66 69 64 75 71 55 64 62 52 42 33 45 47 51 52 53 54 60 57 47 36 32 30 36 38 31 30 31
97 98 91 69 55 56 68 82 77 76 84 83 78 66 53 70 65 65 64 79 79 64 58 64 49 47 38 46 46 44 45 56 60 64 64 54 32 29 30 35 32 32 32 32
88 83 78 63 47 52 64 78 71 72 89 91 87 66 54 54 60 60 66 68 73 53 48 48 45 49 46 42 49 40 42 37 41 41 43 32 28 29 32 32 33 33 35 36
74 76 64 49 39 60 66 80 85 81 83 90 87 74 63 77 74 62 60 63 70 51 38 45 48 50 44 46 44 37 37 36 40 39 37 36 34 34 34 34 34 37 38 39
68 66 59 47 44 65 90 84 74 85 97 95 89 82 72 63 61 64 59 60 72 55 45 49 48 49 42 43 37 39 39 38 40 40 39 40 42 42 41 43 43 41 46 45
65 58 56 47 70 81 81 82 90 98 99 97 97 81 79 75 71 68 79 63 60 53 52 53 52 48 46 43 41 41 39 41 41 45 38 37 44 45 45 46 50 50 49 50
67 56 54 78 90 93 89 87 90 94 98 98 96 89 79 78 80 71 76 82 65 56 54 58 54 51 46 50 53 45 45 43 41 44 42 44 48 50 50 49 51 52 55 58
59 74 79 90 89 83 94 94 98 99 99 93 86 83 82 77 71 67 62 60 56 52 53 54 51 50 54 55 56 49 51 51 50 51 51 53 50 53 53 53 57 59 59 61
84 84 89 91 88 75 99 97 97 86 83 69 80 84 81 68 63 56 52 51 52 55 54 53 54 56 58 60 56 56 56 56 55 54 54 54 55 57 61 63 63 63 64 65
86 93 96 96 95 97 96 97 87 83 75 73 77 75 79 76 70 65 63 58 62 58 60 61 60 64 64 61 61 63 67 64 60 60 61 62 64 66 68 68 69 69 74 76
90 92 97 98 98 94 88 87 81 75 70 67 73 75 74 71 74 74 71 66 67 66 62 62 67 67 69 71 72 76 68 64 62 62 66 70 72 71 72 74 74 76 76 74
89 93 86 85 85 83 86 85 88 86 77 70 79 82 86 77 78 76 74 76 73 73 70 73 75 75 77 81 79 77 73 70 70 71 73 75 75 76 77 78 77 76 69 66
89 86 90 88 94 91 82 80 75 72 71 73 77 85 90 91 82 81 84 83 83 84 82 85 82 81 80 79 78 76 76 75 77 77 77 76 77 78 78 78 75 73 73 69
91 90 91 97 93 91 84 83 79 78 79 77 83 90 91 95 90 91 92 94 95 86 84 80 80 77 75 77 77 77 78 79 77 79 80 80 83 86 79 78 79 76 72 67
87 93 95 96 95 88 85 84 85 84 84 83 84 86 86 85 85 82 78 81 81 83 81 76 77 77 80 79 80 83 82 81 84 84 87 87 81 82 82 81 78 74 67 58
86 86 92 91 90 90 87 89 91 92 93 93 92 91 89 88 86 85 83 85 81 80 80 78 79 83 87 86 84 85 86 90 92 87 87 88 85 81 79 77 70 60 47 37
91 90 91 89 89 91 92 94 94 94 95 90 87 87 89 90 90 88 88 86 86 87 89 91 92 92 88 89 93 94 95 96 97 94 90 87 83 78 72 64 52 43 42 43
96 97 96 98 96 97 97 96 97 96 95 94 94 95 97 96 98 98 98 97 97 97 94 91 92 95 97 98 98 97 97 97 95 89 87 82 77 67 56 51 48 49 53 54

GFSNW_prec_cthk_036.txt.gz
RH
52 47 39 38 38 39 31 39 42 41 34 67 48 54 59 50 32 46 53 54 47 38 31 29 32 31 28 34 36 40 44 52 59 46 45 45 41 39 43 56 45 50 52 37
53 49 45 42 42 39 37 41 44 50 36 54 53 43 53 47 35 49 53 53 47 39 33 34 35 35 33 37 36 39 46 56 61 50 52 43 43 42 42 43 50 44 52 40
62 59 44 48 50 50 42 48 53 63 52 37 45 47 42 41 34 48 56 55 51 47 37 36 40 41 39 40 48 51 46 48 40 43 37 41 41 43 47 45 52 44 42 35
64 57 48 50 53 54 51 52 49 43 51 44 47 47 47 38 40 47 50 56 54 51 40 40 43 51 44 42 49 53 50 47 40 32 30 32 32 36 42 47 41 41 30 38
60 54 51 57 61 63 62 56 50 45 40 37 44 46 46 36 30 39 50 53 50 48 43 41 44 43 43 39 44 46 45 44 41 37 34 29 29 32 32 43 47 45 41 41
59 52 51 60 66 71 63 62 52 48 39 43 43 40 43 30 27 35 50 51 52 50 42 41 39 37 40 40 40 44 42 41 41 39 34 30 34 26 32 31 44 43 45 43
54 48 61 72 66 70 66 57 51 58 47 49 42 39 44 26 28 37 52 51 55 46 46 45 40 43 41 39 41 41 48 46 45 48 41 46 28 22 22 25 27 30 35 35
52 59 68 68 69 75 69 63 65 65 52 42 49 51 43 28 30 40 53 53 56 55 48 53 51 58 49 47 49 51 57 62 61 57 56 42 30 25 26 31 35 33 33 34
54 66 66 61 68 71 70 64 68 61 66 50 43 56 49 34 36 45 57 61 63 66 64 58 56 63 54 58 52 50 52 60 62 70 60 52 32 29 31 33 43 35 34 34
65 69 66 60 63 65 62 68 76 77 70 49 45 44 49 47 37 52 61 69 64 68 68 73 62 60 51 60 50 44 51 59 61 66 61 46 31 34 33 35 34 35 35 35
71 72 66 66 63 64 63 62 74 76 76 68 76 54 52 45 40 47 56 68 66 73 73 73 65 59 54 53 42 36 41 57 62 65 64 49 34 34 35 36 36 33 31 32
72 72 68 69 67 70 62 73 74 75 71 66 78 72 51 44 44 45 55 55 61 65 73 63 66 59 57 46 50 41 44 35 42 46 46 37 31 29 29 28 29 32 33 35
98 92 85 79 79 75 56 73 66 75 90 90 89 72 63 48 44 44 56 60 66 66 61 80 70 56 55 47 40 39 37 35 38 38 40 37 34 33 33 33 32 34 37 38
90 95 99 91 80 72 53 82 74 83 93 98 93 85 70 58 44 50 62 69 66 62 74 78 70 59 47 42 34 35 35 37 39 46 45 44 42 39 37 37 39 41 42 43
97 93 85 78 73 60 49 71 76 73 90 79 94 90 82 70 65 58 71 73 69 63 64 75 68 59 53 46 41 37 33 34 39 43 40 41 45 45 45 45 47 49 49 50
82 85 81 72 64 52 50 80 95 84 65 79 80 84 87 83 76 68 84 78 74 66 62 78 76 60 52 51 50 39 38 36 34 39 40 40 45 47 49 52 54 55 54 53
79 76 70 65 52 43 46 66 69 76 78 84 92 82 86 98 77 87 94 87 77 74 77 77 81 73 60 55 52 44 44 43 43 44 45 52 52 54 57 58 59 57 57 60
68 66 61 56 52 71 91 91 91 92 89 98 97 93 98 92 91 94 87 86 79 90 91 82 78 75 63 60 53 51 50 51 55 55 55 58 60 62 64 63 59 60 63 66
63 58 55 59 64 75 84 95 99 98 98 98 97 98 99 87 84 84 85 92 92 86 86 82 70 67 64 57 55 56 58 57 61 63 68 68 66 67 67 66 67 69 72 72
65 68 86 88 91 84 88 98 98 98 99 98 97 95 97 94 89 86 84 83 82 79 75 71 67 66 64 62 62 63 65 69 71 77 79 74 73 72 74 75 77 78 78 73
98 98 94 96 97 98 98 98 98 91 84 79 81 78 77 81 79 76 74 73 69 66 66 70 70 67 65 67 69 72 75 80 84 82 80 78 78 80 81 83 82 79 72 67
91 92 97 97 99 96 95 92 85 77 77 71 72 72 71 72 69 75 77 75 72 75 73 76 74 69 71 74 79 85 91 89 83 82 84 86 86 85 82 81 79 76 73 75
97 97 98 96 94 95 93 91 84 80 77 80 76 81 85 84 84 81 79 83 84 79 85 83 81 84 86 87 91 89 84 84 85 85 86 86 84 84 84 78 76 81 79 75
89 94 96 95 95 93 92 89 87 84 84 81 82 85 90 90 95 94 91 94 92 93 88 85 86 88 88 87 86 85 87 88 89 89 88 87 87 86 82 87 85 81 76 73
89 93 95 96 96 95 92 89 89 88 88 88 82 85 90 93 94 91 89 92 90 87 85 85 86 86 85 85 86 90 92 91 89 89 92 90 87 92 90 86 81 77 73 70
95 97 98 97 96 92 90 92 90 90 88 85 82 90 93 95 94 91 92 87 90 91 90 90 89 89 92 94 95 95 95 95 93 91 92 96 91 87 84 82 79 76 71 61
97 96 96 93 93 93 93 93 91 93 96 95 93 94 98 98 97 97 97 96 94 94 94 95 98 98 98 98 96 96 98 98 97 97 95 91 89 87 83 79 72 65 62 59

GFSNW_prec_cthk_042.txt.gz
RH
83 72 58 45 60 58 51 44 40 27 21 47 57 63 56 45 41 49 49 57 59 51 41 40 34 30 27 31 30 36 39 40 45 45 48 47 45 46 48 59 52 59 59 46
92 80 69 50 67 60 50 52 45 37 23 47 47 48 61 54 49 43 46 51 53 58 46 42 39 31 27 33 34 37 39 40 42 42 47 46 46 48 50 55 58 58 56 39
99 86 75 63 64 65 48 59 59 57 48 25 37 41 51 54 43 40 39 42 54 56 50 45 40 35 31 35 35 39 38 42 39 36 33 42 48 48 51 49 58 48 48 37
98 92 83 75 77 74 60 63 58 49 52 38 37 37 40 43 44 41 34 37 50 58 55 54 45 44 38 38 39 43 44 45 43 39 41 47 48 48 50 54 50 52 41 38
98 97 92 76 79 79 70 65 58 51 41 32 41 46 42 39 36 42 38 37 36 56 58 55 53 54 47 39 42 44 45 47 43 45 46 46 47 45 43 45 44 39 38 34
99 98 96 82 83 82 73 67 50 46 47 44 44 36 37 35 35 38 41 27 28 51 55 58 55 58 55 48 44 42 43 48 53 55 56 54 50 39 38 34 31 30 33 29
98 98 94 91 84 70 59 59 56 53 56 51 36 37 40 37 28 34 35 32 36 39 57 60 60 63 60 55 50 48 58 56 53 64 59 53 32 30 30 31 28 28 28 29
99 97 97 93 89 79 66 65 65 58 58 44 47 46 43 41 31 34 39 37 30 47 58 68 65 76 66 66 58 51 56 59 62 64 61 43 32 29 34 35 31 26 25 27
98 96 97 97 96 79 63 75 71 68 66 46 47 47 49 44 35 33 43 40 36 41 61 74 75 84 73 74 59 58 55 54 61 66 58 51 34 30 39 38 33 30 29 32
97 98 98 97 90 72 63 74 77 69 72 68 48 44 44 46 35 34 33 34 31 38 55 84 80 81 76 78 66 62 67 64 63 66 57 46 37 31 29 36 30 29 31 34
98 98 97 95 83 69 58 67 82 74 69 74 70 61 45 39 33 35 33 36 36 45 52 73 86 86 79 79 65 61 60 66 67 65 61 56 34 29 31 31 31 30 32 35
97 98 98 93 72 64 58 71 82 70 72 72 73 72 66 53 40 34 32 27 29 28 47 70 78 83 83 73 73 60 59 51 55 54 53 45 30 26 28 32 33 32 33 36
98 98 93 80 65 62 52 71 82 84 77 62 71 65 73 59 54 46 42 39 48 37 31 53 67 75 76 68 66 65 57 49 52 53 47 42 29 28 25 25 27 30 33 32
88 84 79 70 62 58 59 76 85 85 75 73 67 68 62 58 47 50 47 42 46 56 49 52 62 71 70 70 66 69 58 55 56 51 48 39 28 26 26 26 27 29 31 31
66 67 65 62 61 57 70 81 94 95 89 73 63 64 63 61 63 44 43 42 46 48 65 65 58 67 74 76 75 71 65 62 60 51 48 31 25 27 28 30 32 33 32 34
65 69 68 73 71 73 77 95 95 97 98 81 69 70 57 57 66 65 54 51 47 53 52 68 76 74 69 80 78 63 66 64 63 57 50 38 32 32 34 36 38 40 41 43
63 71 75 75 78 74 80 92 88 97 99 95 87 87 61 50 72 72 76 66 61 62 55 58 70 78 75 88 75 70 67 67 68 63 55 53 48 43 43 43 45 48 50 52
80 77 75 73 70 80 92 84 88 94 98 97 98 89 79 83 82 91 87 76 71 64 68 67 74 83 83 81 76 71 69 69 67 66 67 63 60 57 57 56 54 56 59 64
86 78 69 84 79 83 80 84 90 94 93 85 84 89 84 78 97 99 93 88 87 78 71 68 73 77 72 66 68 63 70 66 65 71 70 71 68 63 65 66 67 66 70 78
97 99 98 85 88 89 87 98 98 98 95 86 80 80 87 76 82 91 95 98 90 91 83 77 75 71 74 75 73 72 83 79 71 71 80 81 74 68 69 75 79 79 84 97
84 88 86 70 68 79 94 98 99 98 91 84 86 91 86 83 87 90 92 91 98 95 87 81 82 81 78 81 86 89 89 91 85 81 79 76 77 78 81 84 86 90 98 97
64 73 68 66 87 87 85 79 77 70 65 72 77 78 78 88 91 92 98 98 94 98 97 97 94 87 84 95 97 95 94 89 86 84 83 80 79 80 84 88 94 96 98 95
99 98 95 87 88 91 90 85 84 98 94 85 85 81 85 91 93 98 99 99 98 98 98 97 97 97 94 87 88 87 81 78 81 84 83 80 83 88 93 98 97 96 94 87
97 99 92 96 94 98 97 99 98 98 98 93 84 87 95 96 99 97 98 98 96 97 96 94 92 89 89 91 92 92 93 90 90 92 94 98 98 97 96 97 93 84 81 83
93 92 89 91 93 97 98 98 98 93 96 99 97 97 96 98 94 94 93 93 92 92 89 84 83 82 84 87 90 94 95 96 98 98 98 98 96 94 95 93 86 84 89 91
94 90 96 98 98 98 97 95 93 93 89 85 83 89 91 94 93 90 90 88 88 90 93 96 96 98 98 98 99 98 96 95 95 95 96 96 97 94 90 89 93 93 91 86
94 97 97 98 98 96 95 95 93 92 93 93 92 92 96 93 94 94 93 94 96 98 98 98 99 97 97 97 98 98 97 97 97 97 97 96 95 95 96 97 96 91 86 84

GFSNW_prec_cthk_045.txt.gz
RH
88 85 86 93 78 66 75 65 47 46 41 53 50 41 38 41 38 52 52 62 64 57 51 45 41 35 31 28 27 30 33 40 45 43 51 55 55 53 51 57 53 56 55 45
93 91 90 93 91 73 79 73 46 47 45 57 47 35 39 39 38 39 43 54 63 61 59 51 45 39 31 29 30 31 34 39 42 39 45 52 53 51 49 50 52 53 62 46
85 97 93 93 95 79 82 76 67 60 66 43 36 45 46 49 42 43 41 44 58 59 64 63 51 44 37 30 31 33 34 39 37 37 34 42 51 49 49 50 55 50 49 37
71 98 97 96 97 88 88 78 75 42 60 55 37 41 37 42 48 47 39 37 47 59 65 68 60 52 46 39 39 40 41 41 38 35 37 39 38 43 50 48 47 51 43 43
74 97 98 99 97 91 92 78 63 58 41 39 47 48 46 40 39 42 49 45 45 33 56 68 68 60 55 46 45 45 47 44 44 42 43 42 42 41 47 47 43 38 40 38
75 97 99 99 98 94 86 74 58 55 43 47 54 43 47 46 40 35 39 46 44 34 34 62 66 65 60 53 51 51 49 49 47 47 48 46 48 43 42 40 36 33 33 26
78 98 99 99 96 86 81 72 63 63 61 50 39 41 47 46 34 28 35 37 35 23 20 53 68 65 62 61 59 54 53 50 51 55 53 61 41 44 41 36 30 29 30 29
82 99 99 98 94 92 89 76 67 62 71 51 40 46 45 54 41 32 28 34 35 31 30 52 62 73 65 64 65 61 55 52 58 65 58 43 37 38 37 37 23 25 33 30
87 99 98 98 94 89 89 88 82 66 73 58 46 45 46 52 43 38 33 31 43 45 50 46 61 74 78 72 71 67 61 55 59 64 64 60 35 36 34 31 29 22 29 28
96 98 98 99 97 91 98 93 74 73 70 62 53 48 47 52 47 41 36 29 43 46 51 60 58 67 74 80 76 74 68 66 61 62 61 51 36 35 34 40 25 22 26 27
99 98 98 98 96 93 95 88 72 68 79 80 71 57 55 55 47 40 37 38 37 52 59 59 56 66 63 73 74 73 69 72 69 63 63 52 37 38 40 33 22 26 29 29
99 99 98 95 96 98 94 87 80 70 78 92 83 64 65 56 45 36 35 25 25 32 52 53 51 60 68 69 75 73 73 65 66 56 52 45 40 37 40 28 22 25 30 31
98 98 98 98 98 97 91 88 77 86 80 89 92 84 68 59 48 34 33 29 30 30 32 42 41 55 48 62 68 72 71 69 70 65 56 49 40 41 43 31 23 23 26 29
98 98 98 98 98 99 92 79 73 81 87 84 81 92 88 82 74 49 37 32 31 41 38 40 47 47 42 55 55 72 72 70 70 62 56 47 41 41 42 31 23 24 26 29
99 98 98 98 98 93 79 69 69 69 84 80 82 83 90 86 84 76 62 49 47 47 58 54 42 42 43 45 49 59 65 67 71 63 58 57 48 46 38 27 25 25 26 30
98 99 98 98 87 74 66 66 65 80 83 87 69 70 77 81 74 70 58 55 56 55 57 63 51 51 53 53 49 46 56 63 64 61 60 63 64 52 42 36 30 30 32 33
97 95 90 81 69 61 58 68 75 78 76 93 89 58 70 72 80 67 71 69 57 54 53 59 60 60 62 67 63 46 48 58 65 67 68 67 65 64 53 49 50 48 45 44
66 64 63 61 61 59 71 83 78 88 86 90 86 79 67 69 82 83 70 79 68 64 57 53 53 54 58 62 59 62 56 60 66 68 71 74 69 67 62 58 58 61 64 62
70 76 77 78 74 72 87 92 93 92 98 98 87 76 67 74 62 70 82 75 79 75 73 64 60 56 61 59 56 57 65 67 71 78 82 76 70 68 71 68 75 73 75 76
74 74 75 72 63 68 83 88 95 99 96 95 97 98 97 89 73 75 86 94 89 88 81 76 72 61 64 67 61 57 60 67 70 75 79 77 74 85 81 76 79 80 83 81
88 88 85 60 65 76 87 88 87 89 95 92 92 90 94 78 79 92 96 97 99 97 92 86 82 76 71 68 66 68 72 72 74 76 77 83 84 87 91 87 90 91 90 94
98 85 71 84 83 82 78 87 87 97 99 99 96 93 90 81 73 85 94 91 90 98 98 98 93 87 87 85 78 74 75 79 83 87 87 89 94 91 94 92 91 96 99 96
84 87 85 82 81 77 76 93 98 97 83 74 74 74 77 84 83 86 86 90 93 98 99 98 95 96 99 99 98 95 93 92 91 94 91 92 97 97 97 98 96 93 93 94
78 77 80 87 83 85 90 96 87 94 92 85 78 78 85 88 92 95 98 98 98 97 97 97 98 97 97 98 98 98 97 98 96 97 92 91 94 97 98 97 97 97 97 97
94 87 97 98 98 96 92 94 96 97 98 96 91 90 89 92 94 93 92 92 94 96 97 96 97 97 95 95 95 91 92 93 94 95 95 97 98 98 98 98 97 95 91 90
89 94 97 97 97 97 98 98 98 98 98 98 94 97 94 97 96 91 94 94 95 94 95 97 97 97 98 98 98 98 97 95 96 98 98 98 97 97 95 91 88 87 93 97
95 97 97 97 97 97 98 98 98 97 96 95 90 89 93 92 91 92 93 92 92 93 94 95 97 98 98 98 98 98 98 97 96 97 97 97 97 96 94 92 95 97 96 92

GFSNW_prec_cthk_051.txt.gz
RH
79 80 80 82 84 87 90 85 75 70 77 89 77 56 27 18 35 40 48 50 57 42 54 55 44 47 47 43 45 44 38 40 51 48 39 37 53 45 51 58 59 55 52 50
83 85 85 85 90 94 95 89 84 82 92 91 73 44 27 20 27 43 51 59 60 60 61 62 53 47 47 43 45 48 37 43 45 52 50 46 49 54 53 57 56 60 71 50
78 82 87 95 98 98 99 99 98 94 96 76 75 51 31 27 33 33 44 66 65 64 65 61 63 57 52 42 38 42 42 39 40 42 42 47 42 43 48 51 61 54 48 47
67 72 77 97 99 99 99 99 92 79 84 77 53 58 37 29 38 35 38 52 81 62 60 54 60 62 64 53 46 47 46 43 41 38 42 45 45 46 47 48 50 54 49 47
66 66 62 67 94 99 99 98 92 82 75 70 75 71 55 36 34 43 42 37 58 74 63 61 66 63 61 63 57 50 50 51 41 42 39 45 41 42 40 40 43 45 45 43
67 75 71 71 95 99 99 98 87 85 79 79 78 72 52 37 31 39 39 34 52 74 70 74 74 75 64 76 70 57 57 53 50 49 44 42 46 35 40 37 39 37 39 37
69 74 80 84 87 96 95 94 86 91 84 94 70 60 66 50 38 38 45 47 43 44 73 81 77 70 66 73 73 68 65 60 56 62 58 61 38 36 34 34 34 35 35 35
72 78 88 98 98 98 90 81 93 90 88 80 75 81 77 65 51 57 62 56 43 48 52 62 79 75 82 74 77 73 70 68 62 64 56 44 38 35 35 33 35 35 34 36
81 98 98 99 97 97 85 86 93 95 90 82 79 81 80 67 63 64 78 66 70 68 51 53 60 49 44 49 62 80 72 67 71 65 60 59 38 37 34 34 35 38 38 35
84 97 99 98 98 99 92 85 87 97 92 83 84 86 80 62 68 73 61 78 77 55 52 63 47 48 42 49 64 93 83 77 79 74 65 46 38 35 40 46 25 50 41 29
87 98 98 98 98 96 93 84 91 97 95 89 90 93 91 71 64 68 80 63 88 79 56 44 47 55 55 56 56 70 83 78 79 70 69 65 44 40 38 32 36 46 36 32
95 98 98 97 98 97 95 98 97 97 98 98 88 97 91 74 77 61 71 65 62 51 56 39 39 60 67 62 63 55 66 78 75 67 61 54 50 46 45 49 49 46 40 36
98 98 96 94 92 94 98 97 97 98 97 97 93 90 77 86 84 85 77 63 65 65 53 46 43 58 56 66 46 46 47 50 63 76 69 64 60 53 53 52 53 55 48 43
96 96 94 91 90 96 97 97 95 96 97 97 91 78 71 75 87 76 76 62 72 76 63 59 50 46 43 56 43 38 38 42 47 49 58 63 66 57 60 64 61 60 51 47
91 92 93 98 97 99 99 98 97 96 91 89 77 66 60 74 90 87 73 87 73 68 61 53 50 38 34 43 42 38 39 41 46 44 37 48 54 57 65 64 63 63 59 53
97 99 98 98 96 94 94 98 98 97 93 72 68 68 66 68 83 97 89 78 75 71 52 56 38 30 38 46 42 35 36 39 47 53 50 46 52 57 60 64 70 68 63 57
99 98 97 99 97 97 97 95 91 88 80 77 67 84 79 78 83 92 80 72 65 63 69 66 54 46 40 44 42 25 30 39 47 52 45 38 40 46 55 66 70 67 66 66
98 99 98 98 97 97 94 85 81 74 75 71 85 97 92 84 78 79 74 76 75 76 77 69 62 59 65 64 40 29 27 32 41 47 44 44 49 45 49 60 66 69 71 71
97 97 97 97 97 97 94 72 63 68 75 79 89 98 95 96 95 90 85 91 81 65 59 54 58 59 65 69 59 50 48 45 48 46 47 54 59 61 63 66 65 67 65 70
93 92 90 92 88 73 67 73 65 67 76 87 89 91 96 98 97 98 98 99 95 81 79 76 79 77 79 73 64 57 54 53 54 55 52 54 57 56 57 61 68 70 70 75
91 88 87 70 67 72 76 75 74 79 81 79 74 82 92 94 96 97 95 92 88 85 86 78 84 82 77 74 71 65 61 60 63 59 61 56 54 62 66 69 70 72 74 72
77 70 73 77 81 82 81 79 79 76 75 81 77 81 81 76 87 95 97 99 90 90 87 91 86 79 74 71 75 75 70 66 61 61 61 63 74 77 75 72 73 75 72 74
67 77 75 81 81 83 85 82 78 78 84 95 84 82 80 86 98 99 96 87 89 98 98 96 92 91 87 87 91 92 89 84 80 81 84 85 85 87 87 87 85 84 89 96
78 80 78 86 86 84 87 92 96 93 96 84 83 84 79 84 90 96 92 92 93 94 96 94 96 97 97 98 98 98 98 98 97 97 98 97 97 98 98 98 98 98 98 97
78 69 71 80 88 88 87 90 97 98 97 95 82 76 84 96 98 95 92 93 91 88 89 91 93 96 97 97 98 98 98 97 97 97 96 97 97 97 97 97 97 97 97 97
66 70 78 79 82 82 81 84 91 96 97 98 97 98 98 96 95 94 96 92 91 91 92 93 94 94 97 97 97 97 97 97 97 97 97 97 97 97 97 97 96 97 97 97
76 87 90 84 85 88 91 91 91 90 93 94 95 96 96 96 94 92 93 95 95 96 97 97 98 97 97 97 98 98 98 98 98 97 97 97 97 97 97 97 97 97 96 96